Regional Weather Roundup
Issued by NWS

Home | Current Version | Previous Version | Graphics & Text | Print | Product List | Glossary On
Versions: 1 2 3 4 5 6 7 8 9 10 11 12 13 14 15 16 17 18 19 20 21 22 23 24 25 26 27 28 29 30 31 32 33 34 35 36 37 38 39 40 41 42 43 44 45 46 47 48 49 50
000
ASUS43 KMPX 161801
RWRMN
WEATHER ROUNDUP FOR MINNESOTA
NATIONAL WEATHER SERVICE TWIN CITIES/CHANHASSEN MN
100 PM CDT WED AUG 16 2017


NOTE: "FAIR" INDICATES FEW OR NO CLOUDS BELOW 12,000 FEET WITH NO
SIGNIFICANT WEATHER AND/OR OBSTRUCTIONS TO VISIBILITY. N/A MEANS
CURRENT SKY AND/OR WEATHER CONDITIONS ARE NOT AVAILABLE.

MNZ060>063-068>070-161900-
   Twin Cities Metro

CITY           SKY/WX    TMP DP  RH WIND       PRES   REMARKS
TWIN CITIES    CLOUDY    72  64  76 SE9       29.87F
6HR MIN TEMP:  66; 6HR MAX TEMP:  73; 6HR PCP:  0.04;

ST PAUL        CLOUDY    73  67  81 SE9       29.87F
CRYSTAL        CLOUDY    72  63  73 SE7       29.85F
BLAINE         CLOUDY    73  66  78 E8        29.87F
LAKEVILLE      CLOUDY    72  66  83 SE6       29.86F
EDEN PRAIRIE   CLOUDY    72  66  81 SE10      29.85F
6HR MIN TEMP:  66; 6HR MAX TEMP:  72; 6HR PCP: TRACE;

SOUTH ST PAUL  PTSUNNY   73  67  81 S7        29.86F
LAKE ELMO      PTSUNNY   72  66  83 SE8       29.89F
$$
MNZ001>005-007-008-013>017-022>024-027-028-161900-
   Northwest Minnesota

CITY           SKY/WX    TMP DP  RH WIND       PRES   REMARKS
BEMIDJI        CLOUDY    63  62  96 SE10      29.89S
HALLOCK        CLOUDY    66  64  94 E9        29.88F FOG
ROSEAU         LGT RAIN  64  59  82 E8        29.90S
WARROAD        DRIZZLE   64  61  88 E5        29.91S
THIEF RVR FALL LGT RAIN  64  63  94 E6        29.88F FOG
CROOKSTON      CLOUDY    66  64  94 S5        29.87S FOG
FOSSTON        RAIN      63  61  94 S5        29.89R
DETROIT LAKES  CLOUDY    66  63  88 SE5       29.88F
MOORHEAD       CLOUDY    66  64  94 S3        29.86S FOG
PARK RAPIDS    CLOUDY    65  63  93 S10       29.89S FOG
MAHNOMEN       CLOUDY    64  63  95 SE6       29.87S
$$
MNZ006-009>011-018-025>026-161900-
   North Central Minnesota

CITY           SKY/WX    TMP DP  RH WIND       PRES   REMARKS
BAUDETTE       LGT RAIN  63  60  90 NE6       29.92F
FLAG ISLAND    LGT RAIN  63  61  94 CALM      29.91F
INTL FALLS     CLOUDY    71  57  61 E7        29.92F
6HR MIN TEMP:  59; 6HR MAX TEMP:  73;

WASKISH        DRIZZLE   64  61  88 E5        29.90F
BIG FORK       CLOUDY    68  59  73 S6        29.92F
LONGVILLE      RAIN      64  61  88 SE5       29.91R
GRAND RAPIDS   CLOUDY    66  61  84 SE9G16    29.93F
CRANE LAKE     CLOUDY    70  55  60 CALM      29.96F
ORR            PTSUNNY   73  54  49 SE7       29.91F
COOK             N/A     72  55  56 SE8       29.94F
WALKER         CLOUDY    63  61  91 SE8       29.90S
$$
MNZ012-019>021-037-161900-
   Northeast Minnesota

CITY           SKY/WX    TMP DP  RH WIND       PRES   REMARKS
DULUTH         CLOUDY    64  58  80 E12       29.96F
6HR MIN TEMP:  57; 6HR MAX TEMP:  65;

ELY            CLOUDY    73  52  46 E8        29.96F
HIBBING        CLOUDY    66  57  72 SE10      29.95S
EVELETH        CLOUDY    70  57  61 SE5       29.97S
DULUTH HARBOR  CLOUDY    64  61  88 NE21      29.96F
TWO HARBORS    CLOUDY    70  61  73 E12       29.96F
SILVER BAY     PTSUNNY   66  57  72 NE13      29.98F
GRAND MARAIS     N/A     64  57  78 E16       30.01F
$$
MNZ029>031-032-039>041-046>048-054>057-064-161900-
   West Central Minnesota

CITY           SKY/WX    TMP DP  RH WIND       PRES   REMARKS
FERGUS FALLS   DRIZZLE   68  68 100 CALM      29.85F
WHEATON        RAIN      70  64  83 CALM      29.85S
MORRIS         DRIZZLE   70  66  88 SE8       29.84S
ALEXANDRIA     CLOUDY    67  65  93 SE6       29.87F
ELBOW LAKE     DRIZZLE   67  66  98 SE3       29.86S
WADENA         RAIN      64  64 100 SE5       29.88S
GLENWOOD       DRIZZLE   66  64  94 SE6       29.87S
APPLETON       HVY RAIN  70  66  88 E3        29.82F
BENSON         RAIN      70  66  88 S5        29.86S
ORTONVILLE     LGT RAIN  68  66  94 MISG      29.83S
MADISON        LGT RAIN  72  72 100 CALM      29.83F
WILLMAR        CLOUDY    70  66  88 SE7       29.86F
$$
MNZ033>034-036-042>043-049>051-058-059-161900-
   Central Minnesota

CITY           SKY/WX    TMP DP  RH WIND       PRES   REMARKS
ST CLOUD       CLOUDY    68  67  96 SE7       29.87F
6HR MIN TEMP:  63; 6HR MAX TEMP:  68;

SAUK CENTRE    DRIZZLE   67  64  91 SE6       29.87F
PAYNESVILLE    CLOUDY    69  65  89 SE7       29.87S
AITKIN         RAIN      64  61  88 E3        29.90S
PINE RIVER     LGT RAIN  63  63 100 SE7       29.93S
BRAINERD       LGT RAIN  65  63  93 SE6       29.90S FOG
STAPLES        DRIZZLE   64  63  94 SE5       29.89S
LONG PRAIRIE   DRIZZLE   64  63  94 E5        29.88F
LITTLE FALLS   CLOUDY    64  63  94 E6        29.88F FOG
LITCHFIELD     CLOUDY    72  68  88 SE8       29.86F
BUFFALO        CLOUDY    70  64  80 SE7       29.87F
MAPLE LAKE     CLOUDY    71  67  88 SE3       29.87F
HUTCHINSON     CLOUDY    71  68  91 E9        29.86F
$$
MNZ037-044-045-052-053-161900-
   East Central Minnesota

CITY           SKY/WX    TMP DP  RH WIND       PRES   REMARKS
PRINCETON      CLOUDY    72  66  83 E3        29.88F
MORA           CLOUDY    68  63  83 E5        29.90F
RUSH CITY      CLOUDY    71  65  80 E5        29.89F HAZE
MOOSE LAKE     LGT RAIN  63  61  94 CALM      29.91F
HINCKLEY       CLOUDY    70  64  83 E8        29.91S
CLOQUET        CLOUDY    63  57  82 E12       29.95S
MCGREGOR       CLOUDY    63  61  94 SE7       29.92F
$$
MNZ071>073-080-081-089-090-097-098-161900-
   Southwest Minnesota

CITY           SKY/WX    TMP DP  RH WIND       PRES   REMARKS
MONTEVIDEO     LGT RAIN  70  68  94 SE5       29.84S
GRANITE FALLS  RAIN      71  68  90 CALM      29.85F
CANBY          LGT RAIN  69  67  92 CALM      29.84S
MARSHALL       LGT RAIN  69  67  93 E7        29.82F
REDWOOD FALLS  RAIN      68  66  93 E6        29.83F FOG
OLIVIA         LGT RAIN  70  66  88 E3        29.84F
PIPESTONE      RAIN      68  66  94 E8        29.80F
WINDOM         RAIN      66  64  94 NE7       29.82F
WORTHINGTON    LGT RAIN  66  65  96 E12       29.81F
JACKSON        RAIN      66  66 100 CALM      29.83S VSB 3/4
TRACY          HVY RAIN  70  69  97 E12       29.83F
SLAYTON        DRIZZLE   67  62  84 NE10      29.83F
$$
MNZ065>067-074>077-082>085-091>093-161900-
   South Central Minnesota

CITY           SKY/WX    TMP DP  RH WIND       PRES   REMARKS
MANKATO        CLOUDY    73  68  84 SE10      29.84F
NEW ULM        CLOUDY    70  66  88 E9        29.83F
ST JAMES       CLOUDY    70  66  88 E6        29.82F
FAIRMONT       CLOUDY    72  68  87 E7        29.82F
GLENCOE        CLOUDY    72  69  92 E9        29.85F
FARIBAULT      CLOUDY    75  70  83 E7        29.86F
OWATONNA       CLOUDY    75  70  83 SE9       29.86F
WASECA         CLOUDY    73  68  83 E7        29.86F
ALBERT LEA     CLOUDY    79  72  78 SE12      29.84F
$$
MNZ078>079-086>088-094>096-161900-
   Southeast Minnesota

CITY           SKY/WX    TMP DP  RH WIND       PRES   REMARKS
ROCHESTER      CLOUDY    78  71  79 SE10      29.89F
6HR MIN TEMP:  63; 6HR MAX TEMP:  78;

RED WING       CLOUDY    77  64  65 SE12      29.86F
STANTON        CLOUDY    76  67  74 SE6       29.85F
DODGE CENTER   PTSUNNY   77  68  73 SE8       29.88S
WINONA         MOSUNNY   79  64  61 SE13      29.89F
AUSTIN         CLOUDY    75  70  83 SE10      29.86F
PRESTON        CLOUDY    78  67  68 SE9       29.90S
$$
ABBREVIATIONS USED IN REMARKS
   TC - TEMPERATURES IN CELSIUS
  WCI - WIND CHILL INDEX
   HX - HEAT INDEX
  VSB - VISIBILITY
$$




USA.gov is the U.S. government's official web portal to all federal, state and local government web resources and services.